This is the latest recevied weather packets stored in our database for station/object W0AKY-13. If no packets are shown the sender has not sent any weather packets the latest 10 day(s).
| Time | Temp. | Humidity | Pressure | Rain* | Wind** | Luminosity | Snow |
|---|---|---|---|---|---|---|---|
| 1777423285 | 9.44° C | 84% | 1019.6 hPa | 0 mm | - | 5 W/m² | - |
| 1777422980 | 9.44° C | 86% | 1019.6 hPa | 0 mm | - | 8 W/m² | - |
| 1777422675 | 9.44° C | 88% | 1019.2 hPa | 0 mm | - | 11 W/m² | - |
| 1777422370 | 8.89° C | 89% | 1019.1 hPa | 0 mm | - | 10 W/m² | - |
| 1777422065 | 8.89° C | 90% | 1019.1 hPa | 0 mm | - | 13 W/m² | - |
| 1777421760 | 8.89° C | 90% | 1019.2 hPa | 0 mm | - | 12 W/m² | - |
| 1777421456 | 8.89° C | 91% | 1019 hPa | 0 mm | - | 16 W/m² | - |
| 1777421153 | 8.89° C | 92% | 1018.9 hPa | 0 mm | - | 23 W/m² | - |
| 1777420849 | 8.89° C | 93% | 1018.8 hPa | 0 mm | - | 14 W/m² | - |
| 1777420545 | 9.44° C | 93% | 1018.8 hPa | 0 mm | - | 19 W/m² | - |
| 1777420241 | 9.44° C | 93% | 1018.9 hPa | 0 mm | - | 18 W/m² | - |
| 1777419937 | 9.44° C | 92% | 1018.7 hPa | 0 mm | - | 21 W/m² | - |
| 1777419634 | 9.44° C | 91% | 1018.9 hPa | 0 mm | - | 21 W/m² | - |
| 1777419333 | 9.44° C | 91% | 1018.8 hPa | 0 mm | - | 19 W/m² | - |
| 1777419031 | 9.44° C | 90% | 1018.6 hPa | 0 mm | - | 22 W/m² | - |
| 1777418731 | 9.44° C | 91% | 1018.3 hPa | 0 mm | - | 25 W/m² | - |
| 1777418428 | 9.44° C | 91% | 1018.3 hPa | 0 mm | - | 36 W/m² | - |
| 1777418123 | 9.44° C | 91% | 1018.3 hPa | 0 mm | - | 34 W/m² | - |
| 1777417821 | 10° C | 91% | 1018.2 hPa | 0 mm | - | 57 W/m² | - |
| 1777417516 | 9.44° C | 91% | 1017.8 hPa | 0 mm | - | 73 W/m² | - |
| 1777417213 | 9.44° C | 93% | 1018.1 hPa | 0 mm | - | 71 W/m² | - |
| 1777416908 | 9.44° C | 93% | 1018.1 hPa | 0 mm | - | 85 W/m² | - |
| 1777416603 | 9.44° C | 94% | 1018.2 hPa | 0 mm | - | 74 W/m² | - |
| 1777416300 | 9.44° C | 94% | 1018.3 hPa | 0 mm | - | 80 W/m² | - |
| 1777415999 | 9.44° C | 95% | 1018.2 hPa | 0 mm | - | 121 W/m² | - |
* Rain latest hour (hover to see other rain measurements)
** Current wind speed in m/s (hover to see current wind gust speed)